Location: Atherton
(17.2661°S, 145.4859°E)
Time: 23:14:26
(UTC+10:00)

Transit 2A - Pass Details

Date: 21 June 2025
Orbit: 598 x 948 km, 66.7° (Epoch: 19 July)

Event Time Altitude Azimuth Distance (km) Brightness Sun altitude
Rises 21:01:04 0° 197° (SSW) 3,382 - -43.2°
Reaches altitude 10° 21:03:40 10° 193° (SSW) 2,388 - -43.8°
Maximum altitude 21:09:04 61° 113° (ESE) 839 - -45.0°
Drops below altitude 10° 21:13:52 10° 32° (NNE) 2,137 - -46.1°
Sets 21:16:05 0° 29° (NNE) 2,998 - -46.6°
